Location: Montreal
(45.5000°N, 73.5833°W)
Time: 03:22:23
(UTC-04:00)

ISS - Pass Details

Date: 11 October 2017
Orbit: 401 x 408 km, 51.6° (Epoch: 19 October)

Event Time Altitude Azimuth Distance (km) Brightness Sun altitude
Rises 18:49:24 0° 298° (WNW) 2,326 1.1 -6.7°
Reaches altitude 10° 18:51:32 10° 305° (NW) 1,465 -0.1 -7.1°
Maximum altitude 18:54:43 45° 20° (NNE) 569 -3.3 -7.7°
Enters shadow 18:57:43 11° 94° (E) 1,398 -1.8 -8.2°
